Starlink 2433

operational
NORAD ID: 47841 Int'l Des: 2021-018 Owner: SPXS Country: US Constellation: starlink
LEOCIRCULARSTARLINK_TYPE

About Starlink 2433

Description loading...

Live Position

Loading 3D Globe...

Upcoming Passes

Altitude History

Altitude vs Time

uPlot chart will show altitude changes over time

Two-Line Element Set

1 47841U 21018BG 25260.44138592 -.00001740 00000-0 -97954-4 0 9999
2 47841 53.0528 289.3593 0001291 103.0412 257.0721 15.06393745250769
Epoch: Sep 17, 2025 • Age: 20 hours

Current Status

Altitude 554.4 km
Velocity 7.58 km/s
Sub-Earth Point -24.15°S, 28.29°E
Launch Date Mar 11, 2021
Age 4.5 years
Type internet

Technical Details

Classification Payload
Mass 260.00 kg
Dry Mass 248.00 kg
Total Mass 260.00 kg
Length 0.20 m
Diameter 2.80 m
Span 9.00 m
Shape Box + pan
Manufacturer SPXS
Bus Type Starlink
Phase Status In Orbit
Owner/State SPXS/US

Large Constellations

Loading constellations...